Starlink 4375

operational
NORAD ID: 53192 Int'l Des: 2022-084 Owner: SPXS Country: US Constellation: starlink
LEOCIRCULARRETROGRADESSO

Über Starlink 4375

Beschreibung wird geladen...

Live-Position

3D-Globus wird geladen...

Nächste Überflüge

Höhenverlauf

Altitude vs Time

uPlot chart will show altitude changes over time

Zweizeiliger Elementsatz

1 53192U 22084D 25346.74054848 .00000679 00000-0 51256-4 0 9991
2 53192 97.6044 45.4975 0001093 96.6891 263.4460 15.05647192186963
Epoch: 12. Dez. 2025 • Age: 14 hours

Aktueller Status

Höhe 555.7 km
Geschwindigkeit 7.58 km/s
Subsatellitenpunkt -14.41°S, 30.96°E
Startdatum 22. Juli 2022
Alter 3.3 years
Typ internet

Technische Details

Klassifizierung Payload
Masse 297.00 kg
Trockenmasse 275.00 kg
Gesamtmasse 297.00 kg
Länge 0.20 m
Durchmesser 2.80 m
Spannweite 9.00 m
Form Box + pan
Hersteller SPXS
Bus-Typ Starlink
Phasenstatus In Orbit
Besitzer/Staat SPXS/US

Große Konstellationen

Loading constellations...